DW4393 Weather Reports


Display with metric or nautical units.
time (UTC)temp
F
wind
direction
speed
MPH
gust
MPH
rain 1hr
in
rain 24hr
in
rain mn
in
humidity
%
barometer
mb
20260831230803 86 314 0.0 0.0 0.00 0.00 0.00 63 1017.0
20260831230303 86 314 0.0 0.0 0.00 0.00 0.00 62 1017.1
20260831224804 87 314 0.0 0.0 0.00 0.00 0.00 60 1017.3
20260831223803 87 314 0.0 0.0 0.00 0.00 0.00 59 1017.3
20260831223303 88 314 0.0 0.0 0.00 0.00 0.00 58 1017.3
20260831221803 89 314 0.0 0.0 0.00 0.00 0.00 55 1017.3
20260831221303 89 314 0.0 0.0 0.00 0.00 0.00 53 1017.4
20260831220803 89 314 0.0 0.0 0.00 0.00 0.00 53 1017.3
20260831220303 89 314 0.0 0.0 0.00 0.00 0.00 54 1017.4
20260831213803 89 138 0.0 0.0 0.00 0.00 0.00 54 1017.5
20260831213303 89 138 0.0 0.0 0.00 0.00 0.00 53 1017.5
20260831211803 90 138 0.0 0.0 0.00 0.00 0.00 51 1017.6
20260831211303 90 128 0.0 0.0 0.00 0.00 0.00 51 1017.6
20260831210803 90 98 0.0 0.0 0.00 0.00 0.00 52 1017.6
20260831210303 91 103 0.0 0.0 0.00 0.00 0.00 51 1017.5
20260831204803 91 49 0.0 0.0 0.00 0.00 0.00 49 1017.8
20260831204303 92 49 0.0 0.0 0.00 0.00 0.00 47 1018.0
20260831203803 92 49 0.0 0.0 0.00 0.00 0.00 50 1017.9
20260831203303 92 44 0.0 0.0 0.00 0.00 0.00 49 1017.9
20260831201804 92 107 0.0 0.0 0.00 0.00 0.00 51 1017.9
20260831200803 92 238 0.0 0.0 0.00 0.00 0.00 49 1018.1
20260831200303 92 95 0.0 0.0 0.00 0.00 0.00 49 1018.1
20260831194803 92 343 0.0 0.0 0.00 0.00 0.00 48 1018.3
20260831194303 92 259 0.0 0.0 0.00 0.00 0.00 51 1018.3
20260831193803 92 277 0.0 0.0 0.00 0.00 0.00 50 1018.2
20260831191803 92 308 0.0 0.0 0.00 0.00 0.00 55 1018.5
20260831191303 91 240 0.0 0.0 0.00 0.00 0.00 52 1018.5
20260831190803 90 230 0.0 0.0 0.00 0.00 0.00 53 1018.7
20260831190307 89 181 0.0 0.0 0.00 0.00 0.00 58 1018.7
20260831184803 87 84 0.0 0.0 0.00 0.00 0.00 63 1019.0
20260831183304 88 67 0.0 0.0 0.00 0.00 0.00 59 1019.0
20260831181803 88 121 0.0 0.0 0.00 0.00 0.00 58 1019.2
20260831180804 87 278 0.0 0.0 0.00 0.00 0.00 60 1019.3
20260831180303 87 278 0.0 0.0 0.00 0.00 0.00 64 1019.4
20260831174804 89 5 0.0 0.0 0.00 0.00 0.00 58 1019.5
20260831174303 88 5 0.0 0.0 0.00 0.00 0.00 58 1019.6
20260831171804 88 132 0.0 0.0 0.00 0.00 0.00 62 1019.8
20260831171303 88 118 0.0 0.0 0.00 0.00 0.00 63 1019.9
20260831170803 87 118 0.0 0.0 0.00 0.00 0.00 64 1020.0
20260831164804 85 234 0.0 0.0 0.00 0.00 0.00 71 1020.3
20260831164303 85 234 0.0 0.0 0.00 0.00 0.00 71 1020.2
20260831163803 84 234 0.0 0.0 0.00 0.00 0.00 69 1020.3
20260831163305 82 234 0.0 0.0 0.00 0.00 0.00 81 1020.2
20260831161805 83 234 0.0 0.0 0.00 0.00 0.00 77 1020.6
20260831024302 74 252 0.0 0.0 0.00 0.00 0.00 91 1019.3
20260831023803 74 252 0.0 0.0 0.00 0.00 0.00 91 1019.3
20260831023306 75 252 0.0 0.0 0.00 0.00 0.00 91 1019.3
20260831021803 75 252 0.0 0.0 0.00 0.00 0.00 90 1019.3
20260831021302 75 252 0.0 0.0 0.00 0.00 0.00 90 1019.3
20260831020802 75 252 0.0 0.0 0.00 0.00 0.00 90 1019.2
20260831020303 76 252 0.0 0.0 0.00 0.00 0.00 90 1019.2
20260831014803 76 252 0.0 0.0 0.00 0.00 0.00 89 1019.0
20260831014303 76 252 0.0 0.0 0.00 0.00 0.00 89 1019.0
20260831013803 76 252 0.0 0.0 0.00 0.00 0.00 89 1019.0
20260831011803 77 252 0.0 0.0 0.00 0.00 0.00 88 1018.7
20260831011303 77 252 0.0 0.0 0.00 0.00 0.00 88 1018.7
20260831010802 77 252 0.0 0.0 0.00 0.00 0.00 87 1018.7
20260831010303 77 252 0.0 0.0 0.00 0.00 0.00 87 1018.6
20260831004802 78 252 0.0 0.0 0.00 0.00 0.00 86 1018.5
20260831004303 78 252 0.0 0.0 0.00 0.00 0.00 85 1018.4
20260831003802 78 252 0.0 0.0 0.00 0.00 0.00 84 1018.4
20260831003303 78 252 0.0 0.0 0.00 0.00 0.00 84 1018.4
20260831001803 79 252 0.0 0.0 0.00 0.00 0.00 83 1018.3
20260831000803 80 252 0.0 0.0 0.00 0.00 0.00 80 1018.2
20260831000303 80 252 0.0 0.0 0.00 0.00 0.00 79 1018.3
20260830234802 81 252 0.0 0.0 0.00 0.00 0.00 76 1018.1
20260830233802 82 252 0.0 0.0 0.00 0.00 0.00 76 1018.1
20260830233303 82 252 0.0 0.0 0.00 0.00 0.00 75 1018.0
20260830231803 83 252 0.0 0.0 0.00 0.00 0.00 74 1018.1
20260830231303 84 252 0.0 0.0 0.00 0.00 0.00 70 1018.0